Wind_Speed
98 98 96 91 89 89 88 87 83 81 79 74 70 69 69 68 65 65 65 65 64 61 59 59 55 52 52 54 53 52 51 50 48 46 45 43 42 42 42 40 37 34 33 32 32 32 32 31 29 28 27 28 30 31 31 31 30 31 31 31 32 32 32 33 34 34 35 37 38 39 40 41 41 43 44 44 45 45 45 45 46 46 46 47 48 48
99 99 95 89 89 89 90 90 87 85 82 77 72 69 70 69 67 67 67 66 65 63 63 63 59 53 52 56 56 52 51 49 48 47 45 42 41 41 41 40 36 33 32 33 33 34 33 32 31 30 30 31 32 33 33 32 32 33 34 34 34 34 34 34 35 36 37 39 40 41 41 42 44 45 46 46 47 47 47 47 48 48 49 49 50 51
98 98 94 90 90 91 91 92 90 88 85 81 76 72 70 69 68 68 68 67 66 66 65 65 63 57 52 55 54 50 49 49 48 46 45 42 41 41 40 38 35 33 33 34 35 35 35 34 33 33 33 33 34 34 34 34 34 35 36 37 37 36 36 36 37 38 39 41 42 42 43 45 46 48 49 49 49 50 50 50 51 51 51 51 52 53
95 96 95 92 92 92 92 92 92 90 88 84 81 76 72 70 68 68 69 69 68 67 67 66 65 61 55 52 50 49 49 49 49 48 46 45 43 41 39 37 35 34 35 35 36 36 36 36 35 36 36 35 35 35 35 35 36 37 38 39 39 38 38 38 39 40 41 42 43 44 46 48 49 51 52 53 53 53 53 53 53 54 54 54 54 55
96 98 98 94 93 93 92 93 92 92 90 86 83 80 76 73 71 70 70 71 71 69 67 67 67 63 57 53 50 50 51 50 51 50 49 48 46 43 39 37 37 37 37 38 39 38 38 38 38 38 38 36 35 35 36 36 37 39 40 40 40 40 40 41 42 43 44 44 45 46 48 50 53 54 56 56 56 56 56 56 57 57 57 57 56 57
98 100 100 97 94 94 93 92 91 91 90 88 86 83 81 79 76 75 73 71 71 69 67 67 67 63 58 55 55 54 53 52 53 53 54 52 49 46 44 42 40 40 40 41 41 40 39 40 40 40 40 37 36 36 37 37 39 41 42 43 43 43 43 43 44 45 46 47 48 50 51 54 56 58 59 59 59 59 59 59 60 61 61 60 59 59
100 101 102 98 95 95 93 92 91 90 90 88 87 85 83 83 81 79 77 75 72 70 69 67 66 65 62 58 58 57 55 55 54 54 56 54 50 49 48 47 45 43 43 42 42 41 41 41 42 42 41 39 37 37 38 39 40 42 44 45 45 46 46 46 46 47 49 50 52 54 56 58 59 60 61 61 61 61 62 62 63 63 63 62 62 62
102 103 103 99 96 95 93 91 90 89 88 87 87 87 85 84 83 81 81 80 77 75 74 70 67 68 66 62 60 59 59 58 56 56 57 55 54 53 52 52 51 49 48 46 45 45 44 44 44 44 43 41 40 40 40 41 42 44 46 47 49 50 50 49 49 50 52 54 57 59 61 62 62 63 63 63 63 63 64 65 66 66 65 64 64 64
105 105 104 101 96 95 92 90 90 89 88 86 87 87 87 86 84 83 82 81 80 79 77 73 69 68 65 61 60 59 60 60 58 58 59 58 58 57 56 56 56 55 53 51 49 49 49 48 48 47 46 46 45 44 43 44 45 47 48 50 52 53 53 53 52 54 56 58 61 63 64 65 65 65 65 65 65 66 67 68 68 68 67 67 67 66
109 108 107 103 97 93 90 90 92 91 89 87 87 86 86 87 86 84 83 80 79 78 75 73 71 69 64 59 57 57 57 59 60 60 61 59 58 58 58 57 56 55 54 52 51 51 51 50 50 51 50 49 48 47 48 49 50 51 53 54 55 56 56 56 57 58 60 62 64 66 67 67 67 68 67 67 68 68 69 70 70 70 70 69 69 69
112 111 109 104 98 94 93 93 94 93 91 89 88 86 85 85 85 84 82 81 79 75 72 71 71 70 68 63 59 58 59 61 62 63 62 60 60 59 58 57 56 55 54 53 53 53 52 52 52 51 50 50 51 51 53 54 56 56 57 57 57 58 59 60 61 61 62 64 66 68 69 69 69 69 69 69 70 71 72 72 72 72 72 72 72 71
113 112 110 106 99 96 96 96 96 96 95 93 90 87 85 84 85 84 82 81 78 72 68 69 71 72 71 69 66 65 66 67 68 68 67 66 66 64 62 60 58 57 57 56 56 56 56 55 54 54 54 55 56 57 58 59 60 60 60 59 60 61 62 62 62 63 64 67 68 69 70 70 70 70 70 71 72 73 73 74 74 74 74 74 74 73
114 113 111 108 102 98 97 98 99 99 98 96 94 90 87 86 85 84 82 79 75 72 69 68 70 72 70 68 69 69 70 72 72 72 71 70 68 67 65 64 62 61 60 60 60 59 59 60 60 60 60 60 60 61 61 62 62 62 62 61 61 61 62 63 64 66 68 69 69 70 71 71 71 71 71 72 73 74 75 75 75 76 76 76 75 75
115 114 112 109 104 101 99 99 100 99 98 97 95 93 90 88 86 83 81 78 74 73 72 71 71 71 69 66 66 67 68 70 71 72 71 70 69 68 66 66 66 65 64 64 63 62 62 62 63 63 63 62 62 62 63 63 63 63 62 61 61 62 63 65 67 69 70 70 70 71 71 71 72 72 72 73 74 75 75 75 76 76 77 77 77 76
116 114 113 110 105 102 100 99 99 99 100 99 97 96 95 92 88 84 81 80 77 76 75 75 74 71 69 67 66 67 67 67 69 71 71 71 71 70 69 69 69 69 68 67 66 65 64 64 63 63 64 63 63 63 63 63 63 62 63 63 64 65 67 68 70 70 71 71 72 72 72 72 72 72 74 75 75 75 75 76 76 77 78 78 78 78
115 115 113 111 107 103 101 101 101 102 103 103 101 100 99 96 93 89 86 83 82 81 79 78 75 71 70 70 69 70 71 71 70 71 71 72 73 73 73 73 72 72 71 70 69 68 68 67 66 65 66 65 64 63 63 63 63 64 66 67 68 69 70 71 71 72 72 72 72 72 73 73 73 74 76 77 76 75 76 77 78 78 79 79 79 80
113 113 113 112 110 106 104 103 103 104 104 104 103 102 100 98 96 94 91 87 86 84 81 79 76 73 73 73 72 73 75 75 75 75 74 74 74 74 75 75 75 74 73 72 71 70 70 70 69 69 69 69 68 68 67 67 67 68 70 71 71 72 73 73 73 73 73 73 73 74 74 75 75 77 78 78 77 77 78 79 80 80 81 81 81 82
112 113 112 112 111 109 107 105 105 105 105 104 103 102 102 102 100 97 95 93 89 86 82 79 77 76 75 74 74 76 78 79 80 80 79 79 78 78 78 78 78 76 75 74 73 73 73 73 73 73 73 73 73 73 72 71 72 73 73 74 74 74 74 74 74 74 74 75 75 75 76 76 77 79 79 79 79 79 80 81 82 82 83 83 84 84
113 114 113 112 112 110 109 107 106 106 105 104 103 103 104 103 101 99 97 95 92 88 84 81 80 79 77 76 77 80 81 83 84 84 84 84 84 83 82 81 79 78 77 76 76 76 76 76 76 76 75 74 74 74 74 75 77 77 77 77 77 76 75 75 75 75 76 76 77 77 78 79 79 80 80 80 81 82 83 84 85 85 85 86 86 87
113 114 114 113 113 112 111 109 107 105 104 103 103 104 103 102 99 99 98 96 94 92 88 85 83 81 80 79 80 83 84 85 86 86 86 87 86 85 84 82 81 79 79 78 79 79 79 79 78 76 74 73 74 76 78 80 80 79 79 79 78 77 76 76 76 77 78 78 79 79 79 80 81 82 82 83 84 86 87 87 88 88 88 89 90 91
113 114 114 114 113 113 111 109 106 104 104 103 103 102 101 100 98 98 98 97 96 94 92 90 87 83 82 83 84 85 86 86 86 86 87 87 86 85 84 83 82 81 81 81 81 81 81 80 79 77 76 77 79 81 81 81 81 80 81 81 80 78 77 77 77 78 79 80 80 80 81 81 82 83 84 86 87 88 89 90 91 91 92 93 93 94
113 114 114 114 114 113 111 109 107 106 105 104 103 102 101 100 99 99 97 96 95 95 95 93 90 86 84 85 86 87 88 88 89 89 89 88 87 86 85 84 83 83 83 83 83 82 82 81 80 80 81 82 83 83 82 82 82 82 82 82 80 79 79 79 79 80 81 82 82 82 83 83 84 85 86 87 89 90 91 92 93 94 95 96 96 97
113 115 115 115 115 113 112 111 110 108 107 105 104 102 102 101 101 100 98 96 96 96 96 95 92 89 88 88 88 89 90 91 91 91 90 90 88 87 86 85 85 84 84 84 84 83 83 83 82 83 85 85 84 83 83 83 84 84 83 82 81 81 81 81 82 82 83 83 84 85 85 86 86 87 88 89 91 92 93 94 95 96 97 98 99 100
114 116 116 116 116 115 115 113 112 110 108 106 105 102 102 101 100 100 99 98 99 98 96 94 91 88 87 88 88 89 91 91 91 91 91 90 89 88 87 86 85 85 85 86 86 86 85 85 86 87 87 86 85 85 85 85 85 84 84 83 83 83 84 84 84 84 85 86 87 88 88 88 89 90 91 92 93 94 96 97 98 99 99 100 101 103
115 116 116 117 117 117 116 114 112 110 108 106 104 103 102 101 102 102 101 101 101 99 96 93 88 85 85 86 87 89 90 90 90 90 90 91 91 90 89 88 87 87 87 87 87 87 87 87 88 88 87 87 86 86 86 85 85 85 85 85 86 86 86 86 86 87 88 89 90 90 91 91 92 93 94 95 96 97 98 99 100 101 102 103 104 105
116 117 117 117 117 116 114 112 110 108 107 106 105 104 104 104 104 104 103 103 102 99 97 93 87 85 87 87 88 91 91 91 90 90 91 91 92 91 90 89 89 88 88 88 87 87 88 88 88 88 88 87 87 87 87 87 87 88 88 88 88 88 88 88 89 90 91 92 92 93 94 95 96 97 97 98 98 99 100 101 102 103 104 105 107 109
117 117 117 117 116 115 115 113 112 111 111 109 108 107 106 106 107 107 107 106 103 101 99 95 90 90 90 90 90 92 92 92 93 93 92 92 92 91 90 90 89 89 89 89 89 89 89 89 89 89 89 89 89 89 89 90 90 91 91 91 91 90 90 91 92 93 94 94 95 96 98 98 99 100 100 101 101 102 102 103 104 106 107 108 110 111
116 116 115 115 116 116 117 118 117 117 116 114 112 112 111 110 110 111 110 108 105 103 100 95 93 93 92 92 94 95 95 95 94 93 92 92 91 90 90 90 90 91 91 91 91 91 91 91 91 91 91 91 92 92 93 93 94 94 94 94 94 93 93 93 94 95 96 97 99 100 101 101 102 103 103 103 104 105 106 107 108 109 110 111 113 114
115 114 114 115 116 117 118 120 120 120 119 118 117 116 116 115 114 114 112 108 107 105 100 96 96 95 94 96 97 98 99 98 96 94 94 94 94 93 93 93 93 93 93 93 93 93 94 94 94 94 94 94 95 96 97 97 97 97 97 97 96 96 96 96 97 98 100 101 102 103 103 104 105 105 106 107 108 109 110 110 112 112 113 115 116 117
114 113 113 114 116 117 119 120 121 121 120 120 119 118 118 118 117 115 112 108 106 103 99 98 98 96 95 98 99 99 100 99 97 98 98 99 100 99 99 98 98 98 97 97 97 97 97 97 97 97 97 98 98 99 99 99 99 99 99 99 98 98 98 99 100 102 103 104 105 106 106 107 108 108 109 110 111 112 113 114 115 116 117 118 119 120
114 113 113 114 116 117 119 120 121 122 122 122 121 121 120 118 116 114 111 108 107 104 101 101 101 98 98 100 101 101 101 101 101 103 103 104 104 104 104 104 104 103 102 101 101 101 100 100 100 101 101 101 101 101 101 101 102 101 101 101 101 101 102 103 104 105 106 107 108 109 109 110 111 112 113 114 115 116 117 118 118 119 120 121 122 123
115 114 113 114 116 117 118 120 121 122 123 123 122 120 119 117 115 114 112 112 111 109 107 106 103 100 101 105 106 105 105 105 106 106 106 106 106 106 106 107 107 106 104 103 103 102 102 102 103 103 103 103 103 103 103 104 104 104 104 104 104 105 106 106 107 108 109 110 111 112 113 114 115 116 117 118 119 120 120 121 121 122 123 124 125 126
116 116 115 114 115 116 117 118 121 123 124 122 120 118 117 117 117 117 116 115 115 113 111 109 106 104 107 110 110 109 108 108 108 108 107 106 106 106 106 107 107 107 106 105 105 105 104 104 105 105 105 104 105 105 106 106 106 107 108 108 108 109 109 110 110 111 112 113 114 115 116 117 118 119 121 122 122 123 123 123 124 125 125 126 127 129
119 117 117 116 115 115 116 118 120 122 121 118 116 116 118 119 119 119 118 116 116 116 114 111 109 108 110 111 111 110 109 109 109 108 108 107 106 106 107 108 108 108 108 108 107 107 107 107 107 107 107 107 108 108 108 108 109 110 111 111 111 111 112 112 113 114 115 116 117 118 119 121 122 123 124 124 124 125 125 126 126 127 128 129 130 131
122 119 117 117 116 115 115 118 119 118 116 114 114 117 119 120 120 120 119 118 118 117 115 112 110 109 110 110 111 111 111 111 110 108 108 107 107 108 108 108 109 109 110 110 109 109 109 108 108 109 109 110 111 111 111 111 112 112 113 113 113 113 114 114 115 116 118 119 120 122 123 125 126 126 125 126 126 127 127 128 128 130 131 132 132 132
123 120 118 117 117 116 115 116 116 114 112 112 114 116 118 119 118 119 118 118 119 118 116 113 111 110 111 111 111 112 113 112 110 108 107 108 109 109 109 109 110 110 111 111 111 111 110 109 110 110 111 112 113 113 114 114 114 114 114 114 114 115 115 116 117 119 121 123 124 126 126 127 126 126 127 127 128 129 129 130 131 132 132 132 131 131
120 121 121 119 118 118 117 116 114 113 112 111 111 112 113 115 116 118 118 118 118 118 117 114 112 112 112 112 112 113 113 112 110 108 108 110 112 112 112 111 112 112 112 112 112 112 111 111 112 112 113 114 114 115 115 115 115 115 115 116 116 116 117 119 121 123 124 125 126 126 127 127 127 128 128 129 130 130 131 132 132 132 131 130 130 130
117 120 122 123 121 119 119 118 116 113 109 106 107 109 112 114 116 119 119 116 115 116 115 113 112 113 113 114 115 115 115 113 110 108 110 114 116 115 114 113 113 113 113 113 113 113 113 113 114 114 115 115 116 116 117 117 117 117 117 118 118 120 121 123 124 125 125 126 126 127 127 128 128 129 130 131 132 132 132 132 131 130 130 130 130 130
116 117 121 124 124 122 120 118 116 112 107 105 108 111 114 115 117 120 118 113 111 113 114 113 113 114 115 116 117 117 117 114 110 110 114 118 118 116 115 114 114 114 114 114 115 115 115 115 115 116 116 116 117 118 119 119 119 120 120 121 122 123 124 125 125 126 126 127 127 128 128 129 130 131 132 132 132 131 130 129 129 129 130 130 131 131
113 115 117 120 123 124 123 120 117 113 109 108 111 113 115 116 118 119 116 110 108 111 114 115 115 115 116 117 118 118 117 114 112 113 117 119 119 117 116 116 116 116 116 116 116 116 117 117 117 117 118 118 119 120 121 122 122 123 123 124 124 125 125 126 126 127 128 128 129 130 131 131 131 131 131 130 129 129 129 129 130 130 131 132 133 133
113 114 115 116 118 121 124 124 121 116 112 111 112 114 117 118 118 116 113 110 109 111 115 118 118 116 116 117 117 116 116 115 114 114 116 118 118 118 117 117 117 117 117 117 118 118 118 119 119 120 120 121 122 122 123 124 124 124 124 124 125 125 126 127 128 129 129 130 130 130 130 130 130 129 129 129 129 129 130 131 131 132 133 133 134 134
113 114 115 115 116 117 121 124 124 120 116 114 114 116 117 118 117 116 115 114 114 113 113 116 117 116 116 116 116 116 115 115 114 114 115 116 117 118 118 118 118 118 118 118 119 119 120 120 121 121 121 122 122 123 123 124 124 124 125 125 126 127 128 129 129 129 129 129 129 129 128 128 128 129 129 130 130 131 132 132 133 133 134 134 134 135
113 115 115 115 116 117 118 120 121 119 117 118 120 120 120 118 118 119 119 119 118 115 113 113 114 114 114 114 115 115 115 115 115 115 115 115 116 116 117 117 118 118 118 119 119 120 120 120 121 121 121 122 122 123 124 124 125 125 126 126 127 128 128 128 128 128 128 127 127 128 128 129 129 130 131 131 132 132 133 133 133 134 134 135 135 135
115 116 115 115 116 118 118 118 116 115 116 120 124 126 126 124 122 121 120 120 119 117 115 114 114 114 114 113 113 114 114 114 114 114 115 115 115 116 116 117 117 117 118 118 118 118 119 120 120 121 121 122 123 123 124 124 125 125 126 126 127 127 127 127 127 126 127 127 128 128 129 130 130 131 131 132 133 133 134 134 135 135 135 135 135 135
112 113 114 115 117 119 119 118 118 117 117 119 123 126 128 128 127 124 122 121 120 119 118 116 116 116 115 114 113 114 114 115 115 115 115 115 116 116 116 117 117 117 117 118 117 118 118 119 119 120 121 122 122 123 123 123 124 124 124 125 126 126 126 126 127 127 128 128 129 129 130 131 131 132 132 133 134 134 134 135 135 135 135 135 135 135
110 113 115 117 120 121 120 119 118 118 117 118 120 123 125 127 128 128 127 125 123 122 121 120 119 118 118 117 115 115 115 116 116 116 116 116 117 117 117 117 118 118 118 119 119 119 119 119 120 121 121 122 123 123 124 124 124 125 125 126 126 127 127 127 128 128 129 129 130 131 131 132 132 133 133 133 134 134 134 134 134 134 135 135 135 135
106 109 112 115 119 120 119 118 118 119 120 120 121 122 123 124 126 128 129 128 126 125 124 123 122 122 122 122 120 119 118 117 117 117 118 118 118 118 118 118 119 119 120 120 121 122 122 122 123 123 123 124 125 125 125 126 126 126 127 127 127 128 128 128 129 129 130 130 131 131 131 131 132 132 132 133 133 133 134 134 134 134 135 135 135 134
101 105 107 110 112 114 114 115 116 118 119 120 121 122 124 124 124 126 127 128 128 127 126 125 125 125 126 126 127 126 125 123 123 122 122 121 121 120 120 120 120 120 120 121 121 122 123 124 124 125 125 125 125 126 126 126 127 127 127 128 128 128 128 128 128 129 129 129 129 130 130 130 131 131 132 132 133 133 133 134 134 134 134 134 133 133
96 99 101 103 105 106 106 107 109 112 114 116 118 120 123 124 124 124 124 126 127 127 127 127 126 125 125 126 127 128 129 129 129 129 129 128 128 127 126 125 123 122 122 121 122 122 123 124 125 125 126 126 126 126 126 126 126 126 126 126 126 126 126 127 127 127 127 128 128 129 129 130 130 131 131 132 132 132 132 132 132 132 132 133 133 133
91 93 95 98 101 101 101 101 103 107 109 111 113 116 118 121 123 123 123 123 124 125 126 126 125 125 124 123 123 124 125 127 128 129 129 130 130 130 129 129 128 127 126 125 124 124 124 124 124 124 124 124 125 125 124 125 125 125 125 125 125 125 126 126 126 127 127 128 128 129 129 130 130 130 131 131 130 130 130 131 131 131 132 132 133 133
89 90 92 95 97 97 98 99 102 105 107 108 110 111 113 116 118 119 120 120 120 121 121 122 123 123 123 122 121 120 120 120 121 122 122 123 124 125 125 125 125 125 124 124 124 124 124 123 123 123 123 122 123 123 123 123 124 124 124 124 125 125 125 126 126 127 127 128 128 128 128 128 128 128 128 128 129 129 129 130 131 131 132 132 132 132
Wind_Direction
218 219 221 221 222 222 222 221 219 218 219 219 218 218 220 222 222 222 222 224 225 226 225 225 228 235 239 240 240 241 245 247 247 248 249 249 250 253 255 257 258 261 265 269 274 276 276 276 274 273 276 284 290 291 290 291 290 290 290 289 289 290 292 294 296 298 300 303 305 307 308 308 309 310 311 311 311 311 311 312 313 314 315 315 316 317
218 220 221 220 220 221 221 220 220 219 219 218 218 218 220 221 222 222 222 223 224 225 226 226 227 233 241 243 242 243 245 246 246 246 247 246 249 254 255 254 255 260 265 270 273 273 275 274 271 269 274 282 288 289 289 289 289 289 289 288 288 289 290 292 294 296 299 302 304 306 306 307 308 309 309 309 309 309 310 311 312 312 313 314 314 315
218 219 220 220 219 220 220 220 220 219 219 218 218 218 220 221 222 222 223 224 225 225 226 226 225 229 236 240 241 243 244 243 243 243 242 245 251 253 251 250 254 260 265 269 270 272 274 273 270 269 272 280 285 287 288 289 290 290 288 287 288 288 288 289 291 294 298 301 303 304 304 304 306 307 307 308 308 308 309 309 310 311 312 313 313 314
218 219 220 220 219 219 220 221 220 220 220 218 218 219 219 220 221 222 223 224 225 224 225 227 226 227 232 235 237 241 242 240 239 238 239 245 250 250 247 248 253 259 265 268 269 271 273 272 270 268 271 277 281 284 287 289 291 292 289 287 286 287 287 287 289 293 296 298 300 301 301 302 304 305 305 305 306 307 307 308 308 309 310 311 312 312
217 218 219 219 218 218 219 220 221 221 221 220 219 220 220 220 221 221 222 224 224 223 224 226 227 229 232 234 234 236 239 238 236 236 239 245 250 250 247 247 253 259 265 267 269 272 272 270 269 267 269 274 277 281 285 287 290 291 290 287 285 285 285 286 288 291 294 296 297 298 299 300 302 303 303 304 304 305 306 306 307 307 307 308 309 310
216 217 218 218 218 218 219 220 221 222 222 221 220 221 221 222 221 221 222 223 224 224 224 226 227 230 233 235 234 233 235 236 236 238 241 245 248 248 246 247 253 259 264 267 269 271 271 270 268 266 268 271 273 278 282 284 287 290 289 287 285 285 284 285 287 288 291 293 295 296 297 299 300 301 302 302 303 303 304 304 305 305 304 304 306 308
214 216 219 218 217 218 219 220 221 222 223 223 222 222 223 223 223 224 224 224 224 225 226 226 227 230 232 235 236 236 236 237 238 240 243 245 245 245 245 247 252 258 261 265 267 268 269 270 268 266 266 268 271 276 279 282 285 288 287 286 285 286 286 286 287 288 290 292 293 295 297 298 299 300 300 301 301 301 302 302 303 303 303 302 303 305
214 216 219 219 217 218 219 220 222 223 223 223 223 223 224 225 225 225 226 226 226 227 228 228 228 231 233 236 238 238 240 241 241 242 243 243 243 245 246 248 252 257 260 262 265 265 265 267 266 266 265 266 269 273 277 280 283 285 285 285 284 285 286 287 288 288 289 291 293 295 296 297 298 298 299 299 299 300 300 301 301 301 301 301 302 303
214 217 219 219 218 219 220 221 223 224 223 223 224 224 225 226 226 226 227 227 227 228 229 229 230 232 234 236 237 238 240 242 242 242 243 243 244 247 250 252 255 257 260 263 265 266 266 265 264 264 265 265 267 271 275 278 280 283 284 284 283 283 284 285 287 288 290 291 293 294 295 296 297 297 298 298 298 299 299 300 300 300 300 300 302 303
214 217 220 220 218 218 220 220 222 224 223 223 223 224 225 226 226 227 227 228 228 228 229 229 229 231 234 236 236 235 235 237 238 239 241 242 245 249 252 254 256 257 259 263 266 267 267 266 264 263 264 265 266 270 273 276 279 282 284 285 284 283 283 284 286 288 290 291 293 294 294 295 296 296 297 297 297 298 299 299 299 299 300 301 302 303
214 217 220 220 219 218 218 220 222 223 223 222 222 223 224 226 226 227 227 228 227 227 228 228 228 229 233 235 234 233 233 234 236 239 241 244 247 249 251 253 255 257 259 263 265 267 266 265 263 263 264 265 267 271 274 277 280 282 283 284 284 283 283 284 285 287 289 291 293 293 294 294 294 295 296 296 297 298 299 299 299 300 300 301 302 302
215 218 220 220 219 218 219 220 222 223 223 223 223 222 223 225 227 227 227 228 228 227 228 229 228 228 232 237 237 236 238 240 241 244 247 249 251 252 253 254 255 257 260 263 265 266 266 264 263 264 266 269 271 274 276 278 279 280 281 282 282 282 282 283 284 286 288 291 292 292 292 293 293 293 294 295 297 298 298 299 299 299 300 300 301 302
216 218 220 221 220 219 220 221 223 224 224 224 224 224 224 226 228 228 228 229 229 228 228 229 229 228 231 238 241 240 242 244 246 248 250 251 253 254 254 255 256 258 260 263 265 266 266 265 265 266 268 271 273 275 277 278 278 279 280 280 281 280 281 282 284 286 288 290 291 291 291 291 291 292 293 294 296 297 297 298 298 298 299 299 300 301
216 219 220 221 221 221 221 223 224 226 226 227 227 226 226 227 229 230 230 231 230 228 229 230 230 229 230 237 242 241 242 245 248 249 251 252 253 254 254 255 257 259 262 264 265 265 265 265 266 267 269 271 273 274 275 276 277 278 278 279 279 280 281 283 285 286 287 289 290 290 290 290 289 290 291 293 295 295 296 297 297 297 297 298 299 300
216 218 221 222 222 223 224 225 226 227 227 227 228 228 228 228 229 230 230 230 230 229 228 229 230 230 230 235 240 242 242 244 247 249 250 251 252 253 254 255 257 260 263 265 265 265 265 265 267 268 270 272 273 274 274 275 275 275 276 278 280 281 283 284 285 285 286 288 289 289 288 288 288 288 290 292 294 294 295 296 296 296 296 297 299 300
216 218 220 222 223 223 225 226 226 227 227 227 228 228 228 229 229 229 229 228 228 228 227 229 230 230 230 233 238 241 242 243 244 247 249 250 252 253 254 255 257 260 263 264 265 265 265 265 266 268 270 270 271 272 272 272 273 274 277 279 281 283 284 284 284 285 286 288 288 288 287 287 287 288 290 292 293 294 295 295 295 295 296 298 299 301
217 218 220 221 222 222 223 225 226 227 228 229 230 230 230 230 229 229 229 229 229 229 229 230 231 230 230 232 236 240 243 243 244 245 247 249 251 252 254 255 258 260 262 264 265 265 265 265 266 268 268 268 269 270 271 272 274 276 279 280 282 283 284 284 284 285 286 287 288 287 287 286 286 288 290 291 292 293 294 294 295 295 297 299 301 302
216 218 220 222 223 222 222 223 224 226 228 229 231 232 232 232 231 230 231 231 230 231 231 231 232 232 232 233 236 240 243 244 245 246 247 249 250 252 254 257 259 261 262 263 264 265 265 265 267 268 268 267 268 270 272 273 276 278 280 281 282 283 283 283 283 284 286 287 287 287 286 286 286 287 289 291 292 292 293 293 294 296 298 300 301 302
215 217 219 221 222 223 223 223 224 225 227 228 230 231 232 233 233 233 233 233 233 232 232 231 232 233 233 234 236 240 243 244 246 247 248 249 251 253 255 257 259 261 262 263 263 264 265 265 266 268 267 267 268 270 272 274 276 278 279 281 282 282 282 282 283 284 285 286 287 287 286 286 286 287 289 290 291 291 292 293 295 297 299 300 302 302
216 217 218 220 221 223 224 224 224 225 227 228 229 231 232 233 234 234 234 234 233 233 232 232 232 232 233 234 236 239 243 245 247 248 249 250 251 253 256 257 259 260 261 262 262 264 264 265 266 266 265 266 269 271 273 274 275 277 278 280 281 281 281 282 282 283 285 286 286 286 286 286 286 287 288 289 289 290 291 293 295 297 299 300 301 302
216 217 218 220 221 223 224 225 225 226 227 228 229 231 232 234 235 236 235 235 234 234 233 233 233 233 233 234 236 239 242 245 248 249 250 252 253 254 256 257 259 260 261 261 262 263 264 265 265 264 265 268 272 274 274 274 275 276 278 280 280 280 280 281 281 283 284 285 285 286 286 286 287 287 288 289 289 291 292 294 296 297 298 299 300 301
216 217 218 220 221 223 224 226 226 225 226 227 228 230 231 233 234 236 237 237 236 236 235 235 235 235 234 235 237 239 242 245 248 250 252 253 255 256 257 259 260 261 261 261 262 263 264 265 265 265 267 271 273 274 274 274 275 277 278 279 279 279 279 279 280 282 283 284 285 286 286 287 287 288 289 290 291 292 293 295 296 297 298 299 299 300
216 217 218 219 221 222 224 225 226 226 226 227 228 230 231 232 233 235 236 237 237 237 236 236 235 235 236 237 239 241 244 246 249 251 253 254 256 257 259 260 261 261 262 262 262 263 264 264 265 266 269 272 272 273 273 274 275 277 278 278 278 278 278 279 280 281 283 284 284 285 285 286 288 289 290 291 292 293 294 295 296 297 298 299 299 299
216 217 218 219 220 222 223 225 226 227 228 228 229 230 232 233 234 235 236 237 238 238 238 237 237 236 238 240 242 244 246 248 250 252 254 255 256 257 259 260 260 261 262 263 263 264 264 264 265 268 270 271 271 272 272 274 275 276 277 277 277 278 278 278 279 281 282 283 283 284 285 286 288 289 290 291 292 294 295 296 297 298 298 299 299 298
216 217 218 219 220 222 223 225 227 229 230 231 232 233 234 235 235 236 236 237 238 240 241 241 240 240 241 243 246 248 249 250 252 254 255 256 257 258 259 260 261 263 264 265 265 265 265 266 267 269 270 270 271 271 272 274 275 276 276 276 277 277 278 278 279 280 281 282 283 284 285 287 288 289 290 291 293 294 295 297 297 298 298 298 298 297
216 217 218 219 220 222 224 226 228 230 231 232 233 234 235 235 236 237 237 237 238 239 241 241 241 242 243 244 247 249 251 252 254 255 256 257 258 259 260 261 263 265 265 265 265 265 266 267 268 269 269 270 271 272 273 274 274 275 275 276 276 276 277 277 278 279 280 281 283 285 286 287 288 289 290 292 293 295 296 297 298 298 298 298 297 296
216 217 218 219 220 221 222 224 225 227 228 229 230 231 233 234 235 236 237 237 237 238 240 241 241 241 243 244 247 249 250 252 253 255 256 257 258 259 261 262 264 264 264 264 264 264 265 267 267 268 269 270 271 271 272 273 274 274 275 275 276 276 276 277 277 278 280 282 284 285 286 287 288 289 291 292 294 295 296 297 297 297 297 296 296 295
217 218 218 219 220 221 222 223 224 225 226 227 228 229 230 231 232 234 235 236 237 237 238 239 240 241 242 244 245 246 248 249 251 253 256 258 259 259 260 261 262 262 262 263 263 264 265 266 267 267 268 269 270 270 271 272 272 273 274 274 275 275 276 277 278 279 281 282 284 285 286 287 288 290 291 292 294 295 295 296 296 296 296 295 294 294
217 218 219 220 220 221 222 224 225 226 228 229 230 230 231 232 232 234 235 236 236 237 238 238 239 240 241 243 244 245 247 248 250 253 255 257 258 258 259 259 260 261 261 262 262 263 264 265 266 267 267 268 268 269 269 270 271 272 273 273 274 275 277 278 279 281 281 282 283 285 286 287 288 290 291 292 293 294 294 295 295 294 294 294 293 293
217 218 219 220 221 222 223 224 225 227 228 230 231 233 234 235 236 238 239 240 240 241 241 240 241 241 242 243 245 246 248 250 251 252 254 255 256 257 258 258 259 260 260 261 262 262 263 264 265 266 266 267 267 268 269 270 271 271 273 274 276 277 279 280 281 281 281 282 283 285 286 287 288 289 290 291 292 293 293 293 293 293 293 292 292 292
217 218 219 220 221 222 223 224 226 227 229 230 231 233 235 237 238 240 242 243 244 244 243 242 242 243 243 244 245 246 247 249 250 250 252 253 254 255 256 257 258 259 260 260 261 262 263 264 265 265 266 267 267 268 269 270 271 273 274 276 277 278 279 280 280 280 281 282 283 284 285 286 287 288 289 290 291 292 292 292 292 291 291 291 291 291
217 218 219 221 222 223 224 225 226 228 229 230 232 234 236 238 239 240 241 241 242 242 242 242 242 243 242 242 243 244 245 246 247 248 249 251 252 254 255 257 258 259 260 261 262 263 263 264 265 265 266 267 268 269 270 271 273 274 275 276 277 278 278 279 280 280 281 282 283 284 285 285 286 287 288 289 290 290 290 290 290 290 290 290 290 291
217 218 219 221 222 223 224 225 226 228 229 230 232 234 236 237 238 239 240 240 241 241 242 242 242 242 242 242 243 244 244 245 246 247 249 250 252 253 255 256 257 259 260 261 262 263 263 264 265 266 267 268 269 270 271 272 273 274 274 275 276 277 278 279 279 280 281 282 283 283 284 285 286 287 288 288 288 288 288 288 288 289 289 290 291 292
216 217 218 220 222 223 224 225 226 228 229 230 232 234 235 236 238 239 240 241 242 242 242 243 243 243 243 245 246 247 247 247 248 249 250 252 253 254 255 256 257 258 260 261 262 263 264 265 265 266 267 268 269 270 271 272 273 273 274 275 276 277 278 279 280 281 281 282 283 283 284 285 286 287 287 286 286 286 287 287 288 288 289 290 291 292
216 217 218 220 221 223 224 225 227 228 229 231 232 234 235 237 238 239 240 241 243 244 244 244 244 244 245 246 247 247 248 248 249 250 252 253 254 255 255 256 257 259 260 261 263 264 265 265 266 267 268 269 270 271 272 272 273 274 275 276 277 278 278 279 280 281 281 282 283 283 284 284 285 285 285 285 285 286 286 287 288 289 290 291 291 292
218 218 219 220 221 223 224 226 227 228 229 230 232 234 236 237 238 239 240 241 243 244 244 244 244 244 245 245 246 247 247 248 250 251 252 253 254 255 256 257 258 259 260 262 263 264 266 267 267 268 269 269 270 271 272 273 274 274 275 276 277 278 278 279 280 280 281 281 282 282 282 283 283 283 284 284 285 286 287 288 289 289 290 291 291 292
221 220 221 222 222 223 224 225 226 227 227 229 231 233 235 237 238 239 239 240 242 243 244 244 244 245 245 245 246 247 248 249 250 251 252 253 253 254 255 256 257 258 260 261 263 265 266 267 268 268 269 270 271 272 272 273 274 274 275 276 277 277 278 278 279 279 279 280 280 280 281 282 282 283 284 285 285 286 287 288 289 289 290 290 291 292
225 223 222 223 224 224 224 225 226 226 226 228 231 232 234 236 237 238 238 239 241 243 244 244 245 245 246 246 247 247 248 249 250 251 252 252 252 253 254 256 257 259 260 261 263 264 265 266 267 268 268 269 270 271 272 272 273 274 275 275 276 276 277 277 278 278 278 279 279 280 281 282 282 283 284 285 285 286 287 288 288 289 289 290 291 291
228 227 225 224 225 226 226 226 227 227 227 228 230 232 234 236 237 239 239 239 241 243 244 244 245 246 246 247 248 248 249 250 250 251 251 252 253 255 256 257 258 259 261 262 263 264 265 265 266 267 268 269 269 270 271 272 272 273 273 274 274 275 276 276 277 277 278 279 280 280 281 282 282 283 284 284 285 286 286 287 288 288 289 290 290 291
231 231 229 228 226 227 228 228 228 227 227 228 231 233 234 235 237 239 240 240 241 242 244 244 244 245 246 247 248 249 250 251 251 251 252 254 255 257 258 259 260 260 261 262 263 264 265 266 266 267 268 268 269 269 270 271 271 272 272 273 274 275 275 276 277 277 278 279 279 280 281 281 282 283 284 284 285 285 286 287 287 288 289 289 290 291
232 233 233 232 230 229 229 229 229 229 228 229 231 233 235 236 237 239 240 240 239 241 243 245 245 245 246 248 249 250 251 252 252 252 254 255 257 258 259 259 260 261 261 262 263 264 264 265 266 267 267 268 269 269 270 270 271 272 272 273 274 274 275 276 276 277 278 279 279 280 281 281 282 283 283 284 284 285 286 287 287 288 288 289 290 290
234 234 234 235 234 233 231 231 230 230 231 231 232 233 236 238 239 239 240 240 239 240 242 244 246 246 247 248 249 251 252 253 253 253 254 255 256 258 259 259 260 260 261 262 262 263 264 265 266 267 267 268 269 269 270 270 271 271 272 273 273 274 274 275 276 277 278 278 279 280 281 281 282 282 283 284 285 285 286 286 287 288 288 289 289 290
235 235 236 236 237 236 236 234 233 231 232 234 234 234 235 238 239 239 240 240 240 241 242 244 246 247 248 249 249 250 251 252 253 254 254 255 256 257 258 259 259 260 261 261 262 263 264 265 265 266 267 268 268 269 269 270 270 271 272 272 273 274 275 275 276 277 278 278 279 280 280 281 282 283 283 284 284 285 286 286 287 287 288 289 289 290
235 236 237 237 238 239 239 239 238 235 234 235 235 235 235 237 239 240 241 242 242 242 243 244 245 247 249 249 250 250 251 252 252 253 254 255 255 256 257 258 258 259 260 261 261 262 263 264 265 266 266 267 268 268 269 270 271 271 272 273 273 274 275 276 276 277 278 278 279 280 281 281 282 282 283 284 284 285 285 286 287 287 288 288 289 289
236 237 238 238 239 239 240 240 240 240 239 238 238 238 237 238 240 241 243 244 245 244 244 244 245 247 248 250 251 251 251 252 252 253 253 254 255 256 256 257 258 259 260 260 261 262 263 264 265 266 266 267 268 269 269 270 271 272 273 273 274 275 275 276 277 277 278 279 279 280 280 281 281 282 283 283 284 285 285 286 286 287 287 288 288 289
236 238 239 239 240 240 241 241 242 243 243 243 243 243 242 242 241 241 243 245 246 247 247 246 246 247 248 250 252 253 253 253 254 254 255 255 256 256 257 258 258 259 260 261 262 263 263 264 265 266 266 267 268 269 270 270 271 272 272 273 274 274 275 276 276 277 278 278 279 279 280 280 281 282 282 283 284 284 285 285 286 286 287 288 288 289
238 239 240 240 241 242 242 243 244 244 244 245 245 246 247 247 246 245 244 245 246 247 249 249 250 249 249 250 251 253 254 255 255 256 256 257 257 258 258 259 259 260 261 261 262 263 264 265 266 266 267 267 268 269 269 270 271 271 272 273 273 274 275 275 276 276 277 277 278 279 279 280 281 281 282 283 283 284 284 285 286 286 287 288 289 289
240 241 241 242 243 243 243 244 245 246 246 246 247 247 248 249 250 250 249 249 248 248 249 250 251 252 252 252 252 253 254 255 256 257 258 258 259 259 260 260 261 261 262 262 263 264 265 265 266 267 267 268 268 269 269 270 271 271 272 272 273 274 274 275 275 276 276 277 277 278 279 279 280 281 281 282 283 284 284 285 286 287 288 288 289 290
243 243 244 244 244 245 245 245 246 247 247 247 248 248 249 249 250 251 252 252 252 252 252 252 253 254 254 255 255 255 255 256 257 258 259 259 260 261 261 262 263 263 264 264 265 265 265 266 266 267 267 268 268 269 269 270 270 271 271 272 272 273 273 274 274 275 276 276 277 278 278 279 280 281 282 282 283 284 285 286 287 288 289 290 291 292
245 245 246 246 246 246 246 246 247 247 247 248 248 248 249 250 250 251 252 253 254 254 255 255 256 256 257 257 258 258 258 258 258 259 260 260 261 262 263 263 264 264 265 265 265 266 266 266 266 266 267 267 268 268 269 269 270 270 271 271 272 272 273 274 274 275 276 276 277 278 279 280 281 281 282 283 284 285 286 287 288 289 290 291 292 293
244 245 246 247 247 247 247 247 247 247 248 248 249 249 250 250 251 252 252 253 254 255 255 256 257 257 258 259 260 260 261 261 262 262 262 263 263 264 265 265 266 266 266 267 267 267 267 268 268 268 268 268 269 269 269 270 270 270 271 271 272 273 273 274 275 276 277 277 278 279 280 281 282 283 284 285 286 287 288 289 289 290 291 292 292 293
Height
10729 10730 10739 10755 10766 10773 10777 10782 10787 10788 10791 10796 10801 10805 10808 10811 10816 10820 10823 10826 10830 10834 10837 10839 10841 10846 10850 10851 10852 10855 10858 10860 10861 10862 10864 10865 10866 10867 10868 10868 10869 10870 10871 10871 10872 10873 10873 10873 10873 10873 10873 10873 10872 10872 10872 10872 10871 10871 10870 10870 10869 10869 10869 10868 10867 10867 10867 10866 10865 10864 10863 10862 10861 10860 10859 10859 10857 10857 10855 10854 10853 10851 10850 10848 10847 10845
10719 10726 10741 10754 10759 10763 10768 10773 10777 10780 10785 10792 10796 10800 10802 10806 10811 10814 10818 10821 10825 10829 10831 10834 10838 10842 10845 10846 10850 10853 10854 10855 10857 10859 10860 10862 10863 10863 10864 10865 10866 10867 10867 10868 10869 10869 10870 10870 10870 10870 10870 10870 10869 10869 10869 10869 10868 10868 10868 10867 10866 10866 10866 10865 10864 10864 10863 10862 10861 10861 10860 10859 10858 10857 10856 10855 10854 10853 10852 10850 10849 10847 10846 10844 10842 10841
10716 10728 10739 10747 10751 10755 10759 10764 10769 10773 10779 10786 10791 10794 10798 10802 10806 10810 10814 10817 10821 10824 10826 10829 10834 10837 10839 10842 10847 10849 10850 10851 10853 10856 10857 10859 10859 10859 10860 10861 10862 10862 10863 10864 10865 10865 10866 10867 10867 10867 10866 10866 10866 10866 10865 10865 10865 10865 10865 10864 10863 10862 10862 10862 10861 10860 10860 10859 10858 10857 10856 10855 10854 10853 10852 10850 10849 10848 10847 10846 10844 10843 10841 10839 10837 10835
10720 10729 10733 10739 10743 10747 10753 10757 10761 10766 10772 10780 10785 10789 10794 10798 10802 10806 10810 10812 10816 10819 10822 10826 10829 10832 10835 10840 10844 10844 10844 10847 10851 10853 10854 10855 10855 10855 10856 10857 10858 10858 10859 10860 10861 10862 10863 10863 10864 10864 10863 10863 10863 10862 10862 10861 10861 10861 10861 10860 10859 10859 10859 10858 10858 10857 10856 10855 10854 10853 10852 10851 10850 10849 10847 10846 10845 10844 10842 10841 10839 10838 10836 10834 10832 10830
10715 10719 10722 10729 10735 10740 10745 10749 10755 10761 10767 10775 10780 10784 10789 10793 10796 10799 10802 10805 10809 10813 10817 10821 10824 10829 10832 10837 10839 10838 10840 10844 10847 10849 10850 10850 10850 10852 10852 10852 10853 10854 10855 10856 10857 10858 10859 10860 10860 10860 10860 10860 10859 10859 10858 10857 10856 10856 10856 10856 10856 10855 10855 10854 10854 10853 10852 10851 10851 10850 10848 10847 10846 10845 10843 10841 10840 10839 10837 10835 10834 10832 10831 10829 10827 10825
10705 10708 10711 10719 10726 10732 10738 10743 10750 10756 10762 10769 10775 10780 10783 10785 10788 10791 10795 10799 10803 10809 10813 10816 10821 10826 10829 10832 10832 10833 10836 10840 10843 10845 10846 10846 10847 10848 10847 10848 10849 10850 10851 10852 10853 10854 10855 10856 10856 10856 10856 10856 10856 10856 10855 10854 10853 10852 10852 10852 10851 10851 10851 10851 10850 10849 10848 10847 10846 10845 10844 10843 10842 10840 10839 10837 10836 10834 10833 10831 10829 10827 10825 10823 10822 10820
10695 10699 10702 10711 10719 10725 10732 10739 10745 10750 10756 10764 10770 10773 10775 10778 10781 10785 10790 10794 10799 10805 10807 10811 10817 10821 10823 10826 10827 10830 10833 10835 10839 10841 10841 10843 10843 10843 10843 10844 10845 10845 10846 10847 10848 10849 10851 10851 10852 10852 10852 10852 10852 10852 10851 10851 10850 10849 10848 10847 10847 10846 10846 10847 10846 10845 10844 10843 10841 10840 10839 10838 10837 10836 10834 10833 10831 10829 10828 10826 10824 10822 10820 10818 10816 10814
10688 10691 10694 10704 10714 10718 10726 10735 10740 10745 10752 10760 10764 10766 10768 10771 10775 10780 10783 10788 10794 10797 10799 10805 10813 10815 10818 10822 10824 10827 10829 10831 10835 10836 10836 10838 10838 10837 10838 10839 10840 10841 10841 10843 10844 10844 10846 10847 10848 10848 10848 10848 10848 10847 10847 10846 10846 10845 10845 10844 10843 10842 10842 10842 10842 10841 10839 10838 10836 10835 10834 10833 10832 10830 10829 10827 10826 10824 10822 10820 10818 10816 10815 10813 10811 10809
10681 10684 10688 10699 10708 10716 10726 10734 10735 10738 10746 10753 10755 10757 10761 10764 10768 10772 10775 10781 10786 10789 10794 10803 10808 10811 10816 10819 10819 10823 10826 10827 10830 10831 10830 10832 10832 10833 10834 10835 10835 10837 10837 10838 10838 10839 10841 10842 10843 10843 10843 10844 10844 10843 10843 10842 10842 10841 10841 10840 10839 10838 10838 10837 10837 10836 10834 10833 10831 10830 10828 10827 10826 10824 10823 10821 10820 10818 10816 10814 10812 10810 10808 10807 10805 10803
10672 10677 10681 10690 10702 10714 10724 10725 10725 10730 10739 10744 10746 10750 10754 10756 10760 10764 10768 10774 10779 10785 10792 10799 10804 10809 10812 10813 10816 10820 10822 10823 10823 10823 10825 10827 10828 10829 10829 10830 10831 10832 10832 10833 10833 10834 10835 10837 10838 10838 10839 10839 10839 10839 10838 10838 10837 10837 10837 10836 10835 10834 10833 10833 10832 10831 10829 10828 10826 10824 10822 10821 10820 10818 10816 10815 10813 10811 10810 10807 10805 10803 10801 10799 10798 10796
10664 10669 10673 10684 10698 10710 10713 10714 10717 10723 10729 10734 10738 10743 10746 10749 10753 10757 10762 10767 10773 10783 10790 10794 10800 10804 10806 10809 10813 10816 10817 10817 10816 10817 10820 10822 10823 10824 10824 10825 10826 10827 10828 10828 10828 10829 10830 10831 10832 10833 10834 10834 10834 10834 10834 10833 10833 10832 10832 10832 10831 10829 10828 10827 10827 10826 10825 10823 10820 10818 10817 10815 10814 10812 10810 10808 10806 10804 10802 10800 10798 10796 10794 10792 10790 10788
10659 10663 10670 10680 10693 10701 10704 10707 10711 10715 10720 10726 10731 10737 10740 10743 10746 10751 10756 10760 10770 10782 10786 10789 10794 10798 10802 10804 10807 10811 10811 10810 10810 10812 10814 10815 10816 10818 10819 10820 10821 10822 10822 10823 10823 10824 10824 10826 10827 10828 10829 10829 10829 10829 10829 10828 10828 10828 10828 10827 10826 10824 10823 10822 10821 10820 10819 10818 10816 10813 10812 10810 10808 10806 10804 10802 10800 10798 10795 10793 10791 10789 10787 10785 10783 10781
10655 10660 10666 10675 10685 10693 10697 10701 10704 10708 10714 10719 10726 10733 10735 10738 10741 10746 10752 10759 10771 10779 10780 10783 10787 10793 10800 10799 10799 10804 10804 10803 10804 10805 10806 10809 10810 10812 10813 10814 10815 10816 10816 10817 10818 10819 10819 10820 10821 10822 10823 10823 10824 10823 10823 10822 10822 10822 10822 10822 10821 10820 10818 10817 10815 10814 10813 10812 10811 10809 10807 10805 10802 10800 10798 10796 10794 10792 10789 10787 10785 10783 10781 10779 10777 10775
10650 10655 10661 10668 10678 10686 10691 10696 10700 10707 10714 10718 10725 10730 10732 10734 10739 10745 10752 10759 10767 10773 10774 10777 10781 10789 10796 10793 10792 10796 10797 10797 10798 10798 10800 10802 10804 10806 10807 10808 10808 10809 10811 10812 10813 10814 10815 10815 10815 10817 10817 10818 10818 10818 10818 10817 10816 10816 10816 10815 10815 10814 10813 10812 10810 10809 10807 10806 10805 10803 10801 10799 10797 10794 10792 10790 10788 10786 10784 10781 10779 10777 10774 10772 10770 10768
10645 10652 10659 10666 10675 10683 10689 10695 10701 10707 10710 10712 10717 10721 10724 10729 10736 10742 10748 10753 10760 10764 10766 10768 10775 10785 10791 10788 10786 10787 10790 10792 10791 10791 10793 10794 10796 10799 10800 10801 10802 10803 10805 10807 10808 10809 10810 10810 10811 10811 10811 10812 10812 10812 10812 10812 10811 10810 10810 10809 10809 10808 10807 10805 10804 10802 10801 10800 10799 10797 10795 10793 10790 10788 10786 10784 10782 10779 10777 10775 10772 10770 10767 10765 10763 10761
10640 10647 10653 10660 10668 10677 10684 10689 10694 10696 10697 10701 10706 10710 10716 10724 10729 10733 10738 10744 10748 10752 10756 10762 10771 10780 10783 10782 10779 10778 10782 10785 10784 10785 10786 10787 10789 10791 10793 10794 10796 10798 10800 10801 10802 10803 10804 10805 10806 10805 10805 10805 10805 10806 10806 10806 10805 10805 10804 10803 10802 10800 10799 10798 10797 10795 10794 10793 10791 10789 10787 10785 10783 10781 10779 10777 10775 10773 10770 10768 10765 10762 10760 10758 10755 10753
10636 10642 10645 10650 10657 10665 10672 10678 10683 10686 10690 10696 10700 10706 10714 10719 10721 10724 10730 10735 10738 10744 10753 10760 10767 10774 10775 10775 10775 10774 10775 10777 10778 10779 10779 10780 10782 10783 10785 10787 10789 10792 10795 10796 10797 10797 10798 10799 10799 10799 10799 10799 10799 10799 10799 10799 10798 10798 10797 10796 10794 10793 10792 10790 10789 10788 10787 10785 10783 10781 10779 10778 10776 10774 10772 10770 10767 10765 10762 10760 10757 10755 10752 10750 10747 10745
10629 10634 10638 10643 10648 10654 10661 10667 10672 10678 10683 10690 10696 10703 10707 10707 10711 10719 10723 10727 10733 10741 10752 10758 10762 10766 10769 10773 10773 10770 10768 10768 10769 10771 10772 10774 10774 10775 10777 10779 10783 10786 10789 10790 10791 10791 10792 10792 10793 10792 10792 10793 10793 10792 10792 10792 10791 10790 10789 10788 10787 10786 10784 10783 10782 10781 10779 10777 10775 10774 10772 10770 10768 10766 10764 10762 10760 10757 10754 10752 10749 10747 10744 10741 10739 10736
10619 10623 10628 10634 10639 10645 10651 10656 10662 10668 10675 10683 10689 10693 10694 10697 10708 10715 10717 10723 10731 10738 10747 10752 10756 10760 10764 10769 10769 10763 10760 10759 10759 10762 10765 10766 10767 10768 10771 10774 10777 10779 10782 10783 10783 10784 10785 10785 10786 10786 10786 10786 10787 10786 10786 10785 10784 10783 10782 10781 10779 10778 10777 10776 10775 10773 10772 10770 10768 10766 10764 10762 10760 10758 10756 10754 10752 10749 10746 10744 10741 10738 10735 10732 10729 10727
10612 10616 10620 10626 10630 10634 10639 10646 10654 10662 10670 10676 10680 10683 10686 10693 10703 10707 10710 10719 10725 10730 10739 10744 10747 10753 10759 10761 10760 10755 10752 10751 10752 10755 10756 10758 10760 10763 10765 10768 10770 10772 10774 10775 10776 10777 10777 10778 10779 10779 10779 10780 10780 10780 10779 10778 10777 10776 10775 10773 10772 10771 10770 10769 10768 10766 10764 10762 10760 10758 10757 10755 10753 10751 10748 10746 10743 10741 10738 10735 10732 10729 10726 10723 10720 10717
10606 10610 10615 10619 10621 10626 10632 10641 10650 10657 10662 10667 10672 10678 10685 10691 10697 10700 10704 10711 10716 10723 10731 10734 10739 10747 10751 10751 10750 10748 10746 10745 10746 10748 10748 10750 10754 10757 10759 10761 10763 10765 10767 10768 10769 10770 10770 10771 10772 10772 10772 10772 10772 10772 10771 10770 10769 10768 10767 10765 10764 10764 10763 10761 10759 10757 10756 10754 10752 10751 10749 10747 10745 10743 10740 10737 10735 10732 10729 10726 10723 10720 10717 10714 10710 10708
10600 10604 10609 10612 10616 10624 10630 10636 10640 10644 10650 10657 10664 10672 10679 10684 10688 10691 10696 10704 10711 10717 10721 10725 10733 10740 10743 10742 10742 10741 10741 10740 10740 10741 10741 10744 10747 10749 10751 10754 10756 10757 10758 10760 10761 10763 10764 10764 10764 10764 10764 10764 10763 10763 10762 10761 10760 10759 10758 10757 10756 10755 10754 10752 10751 10749 10748 10746 10745 10743 10741 10739 10736 10734 10731 10728 10725 10722 10719 10716 10713 10710 10707 10704 10701 10698
10592 10595 10600 10605 10611 10618 10622 10624 10628 10633 10641 10648 10654 10663 10669 10673 10678 10683 10690 10698 10701 10702 10708 10715 10725 10732 10734 10734 10735 10735 10734 10734 10733 10734 10735 10737 10740 10742 10744 10746 10747 10748 10749 10752 10754 10756 10757 10757 10756 10756 10755 10755 10754 10754 10753 10752 10751 10750 10749 10748 10747 10746 10745 10743 10742 10741 10740 10738 10736 10734 10732 10729 10727 10725 10722 10719 10716 10713 10710 10707 10703 10700 10697 10694 10691 10688
10584 10586 10591 10597 10603 10607 10610 10614 10618 10624 10632 10639 10648 10657 10662 10668 10674 10677 10682 10686 10685 10689 10699 10707 10716 10725 10728 10727 10728 10728 10726 10726 10727 10728 10729 10730 10732 10734 10735 10737 10738 10739 10741 10744 10746 10747 10748 10748 10747 10747 10747 10746 10746 10745 10744 10743 10742 10742 10741 10739 10738 10736 10735 10734 10733 10732 10731 10729 10727 10725 10723 10720 10718 10715 10712 10709 10706 10703 10700 10697 10694 10690 10687 10684 10681 10678
10573 10576 10584 10590 10594 10598 10603 10610 10615 10622 10630 10638 10646 10652 10656 10661 10664 10665 10671 10675 10676 10685 10694 10701 10714 10724 10724 10723 10723 10719 10718 10719 10721 10722 10723 10723 10724 10725 10727 10729 10730 10732 10734 10735 10737 10738 10738 10738 10738 10738 10738 10737 10736 10736 10735 10735 10734 10733 10732 10730 10728 10727 10726 10725 10724 10723 10721 10719 10717 10715 10713 10710 10707 10704 10702 10699 10696 10693 10690 10687 10684 10681 10678 10675 10672 10668
10561 10567 10575 10581 10587 10597 10606 10613 10619 10624 10629 10632 10637 10642 10646 10650 10652 10656 10663 10665 10669 10680 10687 10695 10712 10718 10714 10715 10715 10710 10710 10712 10713 10714 10714 10714 10715 10717 10719 10722 10723 10725 10726 10726 10728 10728 10728 10728 10728 10728 10727 10727 10727 10727 10727 10726 10725 10723 10722 10720 10719 10718 10717 10716 10715 10713 10712 10710 10708 10705 10702 10700 10697 10694 10691 10689 10686 10683 10680 10678 10675 10672 10669 10665 10662 10658
10552 10559 10568 10575 10584 10595 10600 10604 10608 10609 10610 10616 10623 10628 10633 10637 10640 10644 10646 10651 10663 10673 10677 10690 10704 10705 10703 10708 10708 10703 10702 10703 10702 10703 10704 10705 10707 10710 10713 10715 10715 10715 10716 10716 10717 10718 10718 10718 10718 10717 10717 10718 10718 10718 10717 10716 10715 10713 10711 10710 10709 10709 10708 10707 10706 10704 10702 10700 10697 10694 10691 10689 10686 10683 10681 10678 10676 10673 10671 10668 10665 10662 10659 10655 10651 10646
10547 10558 10568 10574 10581 10586 10586 10587 10590 10590 10593 10602 10608 10611 10616 10620 10622 10624 10630 10644 10656 10660 10670 10686 10693 10694 10699 10701 10698 10694 10691 10690 10692 10694 10696 10698 10700 10703 10705 10705 10705 10704 10705 10706 10707 10708 10708 10708 10708 10708 10708 10708 10708 10708 10707 10706 10704 10703 10702 10701 10700 10700 10698 10698 10696 10695 10692 10689 10686 10683 10681 10678 10675 10673 10670 10668 10666 10663 10661 10658 10655 10652 10648 10644 10640 10635
10545 10556 10563 10567 10572 10575 10576 10579 10582 10583 10588 10594 10597 10599 10603 10605 10608 10614 10625 10638 10645 10650 10668 10682 10681 10686 10692 10686 10684 10685 10680 10682 10688 10690 10691 10691 10690 10691 10693 10693 10693 10693 10695 10696 10697 10698 10698 10699 10699 10699 10699 10699 10698 10698 10697 10695 10694 10693 10692 10691 10691 10690 10689 10688 10686 10684 10681 10678 10675 10673 10670 10668 10665 10663 10660 10658 10656 10653 10651 10648 10644 10641 10637 10632 10628 10623
10541 10548 10554 10558 10562 10565 10567 10572 10575 10578 10582 10587 10591 10593 10596 10598 10604 10612 10623 10635 10641 10649 10667 10672 10669 10678 10683 10675 10676 10678 10675 10680 10685 10683 10683 10681 10678 10679 10681 10681 10681 10683 10685 10687 10687 10688 10689 10689 10690 10689 10689 10689 10688 10687 10686 10685 10684 10683 10683 10682 10682 10681 10680 10678 10675 10673 10670 10667 10665 10663 10660 10658 10655 10653 10650 10648 10645 10643 10640 10637 10633 10629 10624 10620 10615 10610
10533 10539 10545 10549 10552 10555 10561 10566 10568 10571 10574 10578 10582 10585 10589 10594 10604 10615 10626 10634 10637 10645 10658 10658 10658 10671 10676 10668 10667 10667 10668 10673 10673 10669 10670 10670 10668 10669 10669 10668 10669 10672 10676 10677 10677 10679 10680 10680 10679 10678 10678 10678 10677 10677 10677 10675 10674 10674 10673 10673 10672 10671 10669 10667 10664 10662 10660 10657 10655 10653 10650 10647 10644 10642 10640 10637 10634 10631 10628 10624 10620 10616 10612 10607 10602 10598
10525 10530 10537 10539 10541 10548 10554 10557 10559 10563 10565 10568 10575 10583 10590 10597 10606 10613 10619 10621 10623 10631 10640 10641 10650 10665 10664 10651 10647 10651 10656 10658 10656 10655 10659 10659 10660 10661 10660 10658 10658 10661 10666 10668 10668 10669 10669 10669 10668 10667 10667 10668 10668 10667 10667 10665 10665 10665 10664 10663 10662 10661 10659 10657 10655 10652 10650 10647 10645 10642 10639 10637 10634 10632 10629 10626 10623 10619 10615 10611 10607 10603 10599 10594 10590 10586
10513 10520 10526 10528 10532 10540 10544 10547 10551 10551 10552 10563 10577 10586 10589 10593 10596 10597 10600 10604 10610 10617 10624 10631 10644 10651 10641 10630 10632 10641 10646 10647 10646 10647 10649 10651 10652 10653 10652 10651 10651 10652 10655 10656 10656 10657 10657 10657 10657 10657 10658 10658 10658 10658 10657 10657 10657 10655 10654 10653 10652 10651 10649 10647 10645 10643 10640 10637 10634 10631 10628 10626 10623 10620 10617 10614 10610 10606 10602 10598 10594 10590 10586 10582 10578 10574
10498 10508 10514 10517 10521 10528 10534 10538 10538 10538 10548 10567 10578 10578 10577 10580 10581 10583 10589 10596 10599 10603 10611 10622 10630 10631 10626 10625 10630 10634 10637 10638 10639 10639 10641 10643 10645 10644 10643 10643 10643 10644 10644 10643 10645 10646 10647 10648 10648 10649 10650 10649 10649 10648 10648 10648 10648 10645 10644 10643 10642 10641 10639 10637 10635 10632 10629 10626 10622 10620 10617 10614 10611 10607 10603 10600 10596 10593 10589 10586 10582 10578 10574 10571 10566 10562
10489 10498 10505 10509 10513 10520 10526 10527 10527 10537 10556 10568 10569 10566 10567 10569 10572 10577 10584 10588 10588 10593 10602 10611 10619 10621 10620 10621 10621 10621 10623 10625 10628 10632 10634 10634 10634 10633 10633 10635 10636 10636 10634 10633 10634 10636 10637 10640 10641 10641 10641 10640 10639 10639 10639 10638 10636 10634 10634 10633 10632 10631 10628 10626 10623 10620 10617 10614 10610 10607 10604 10600 10597 10593 10589 10586 10583 10580 10577 10573 10570 10566 10562 10558 10553 10549
10489 10495 10501 10504 10506 10513 10517 10519 10527 10544 10554 10556 10556 10558 10559 10562 10566 10571 10576 10578 10580 10584 10590 10599 10607 10607 10605 10608 10609 10607 10609 10613 10619 10625 10627 10624 10622 10622 10624 10626 10627 10626 10625 10625 10626 10627 10629 10631 10633 10633 10632 10630 10629 10629 10628 10626 10625 10624 10624 10622 10621 10620 10617 10614 10612 10608 10604 10601 10597 10594 10590 10587 10583 10580 10577 10574 10570 10567 10564 10561 10558 10554 10549 10545 10540 10535
10485 10490 10494 10495 10498 10504 10508 10513 10523 10533 10539 10545 10552 10554 10553 10555 10557 10557 10560 10566 10569 10572 10579 10588 10593 10593 10592 10597 10598 10594 10597 10603 10610 10618 10619 10612 10609 10609 10612 10614 10614 10615 10617 10618 10619 10620 10620 10621 10621 10621 10621 10620 10619 10618 10616 10614 10613 10613 10612 10611 10610 10608 10605 10602 10599 10594 10590 10587 10583 10580 10577 10574 10571 10568 10565 10562 10558 10555 10552 10549 10545 10541 10536 10532 10527 10522
10474 10480 10485 10486 10490 10495 10499 10505 10513 10522 10538 10550 10551 10546 10542 10541 10540 10538 10545 10559 10565 10565 10571 10579 10582 10581 10580 10582 10583 10582 10585 10593 10603 10613 10608 10594 10590 10596 10601 10604 10605 10606 10609 10610 10611 10611 10611 10610 10610 10610 10609 10609 10607 10605 10603 10601 10601 10602 10601 10600 10597 10594 10591 10588 10584 10579 10576 10573 10570 10568 10565 10562 10559 10556 10553 10550 10546 10543 10540 10536 10532 10527 10523 10519 10514 10509
10462 10469 10473 10475 10481 10487 10493 10501 10509 10523 10542 10546 10536 10530 10529 10528 10527 10526 10536 10558 10565 10557 10559 10567 10569 10566 10565 10568 10570 10571 10574 10585 10599 10604 10590 10574 10577 10589 10594 10595 10597 10599 10600 10601 10601 10601 10600 10599 10600 10599 10598 10597 10595 10593 10591 10590 10590 10590 10589 10586 10583 10580 10577 10573 10569 10565 10563 10561 10559 10556 10553 10550 10547 10544 10541 10537 10534 10531 10527 10523 10518 10514 10510 10506 10501 10497
10452 10458 10461 10466 10476 10483 10486 10493 10503 10518 10532 10531 10522 10520 10520 10518 10516 10516 10533 10559 10560 10544 10544 10552 10553 10552 10554 10555 10557 10560 10566 10578 10588 10586 10573 10566 10573 10583 10586 10587 10588 10589 10590 10590 10590 10590 10589 10588 10588 10588 10587 10586 10583 10581 10580 10578 10578 10577 10575 10573 10570 10567 10564 10559 10555 10553 10551 10549 10546 10543 10540 10537 10534 10531 10528 10524 10521 10517 10513 10509 10505 10501 10497 10493 10488 10484
10441 10445 10450 10458 10467 10472 10475 10482 10493 10507 10517 10518 10514 10512 10508 10507 10509 10516 10533 10547 10539 10529 10532 10536 10536 10542 10546 10545 10549 10554 10559 10566 10572 10572 10567 10565 10567 10571 10575 10577 10577 10578 10578 10578 10577 10578 10577 10576 10576 10575 10574 10573 10571 10569 10567 10566 10565 10564 10562 10560 10557 10554 10550 10546 10543 10541 10539 10536 10534 10531 10527 10524 10521 10517 10514 10510 10507 10503 10500 10496 10492 10488 10484 10480 10476 10471
10433 10437 10442 10448 10454 10460 10466 10471 10481 10496 10507 10507 10506 10504 10501 10500 10506 10513 10518 10518 10516 10521 10526 10525 10526 10534 10538 10540 10544 10547 10549 10554 10559 10561 10559 10557 10558 10560 10563 10564 10565 10565 10566 10565 10565 10565 10564 10564 10563 10562 10561 10559 10558 10556 10554 10553 10552 10551 10549 10546 10544 10540 10536 10534 10531 10529 10526 10524 10521 10517 10514 10510 10507 10503 10500 10496 10493 10489 10486 10482 10478 10475 10471 10467 10463 10459
10423 10425 10431 10438 10443 10448 10453 10459 10473 10493 10500 10494 10490 10491 10491 10490 10492 10495 10495 10497 10506 10516 10520 10521 10522 10524 10527 10532 10535 10537 10539 10542 10544 10547 10546 10546 10548 10550 10550 10551 10552 10552 10552 10553 10553 10553 10552 10551 10550 10549 10548 10546 10544 10543 10541 10540 10539 10537 10535 10533 10530 10526 10523 10521 10519 10516 10513 10510 10507 10503 10500 10496 10493 10489 10486 10482 10479 10475 10472 10469 10465 10461 10457 10453 10449 10445
10412 10417 10425 10432 10435 10437 10444 10453 10466 10480 10481 10473 10472 10477 10480 10480 10480 10483 10486 10492 10500 10507 10512 10516 10516 10514 10515 10519 10521 10525 10528 10529 10530 10533 10534 10534 10535 10536 10538 10539 10539 10539 10539 10539 10540 10540 10540 10539 10538 10537 10536 10534 10532 10530 10528 10527 10526 10524 10522 10519 10515 10512 10510 10508 10505 10503 10499 10496 10493 10489 10486 10482 10479 10475 10472 10468 10464 10461 10458 10455 10451 10447 10443 10439 10435 10430
10409 10413 10417 10420 10421 10424 10433 10443 10450 10457 10462 10464 10466 10469 10471 10472 10475 10479 10482 10484 10487 10493 10499 10503 10505 10505 10505 10505 10507 10512 10514 10515 10518 10520 10520 10521 10523 10524 10525 10526 10527 10527 10527 10527 10527 10527 10527 10527 10526 10525 10523 10521 10519 10517 10515 10514 10512 10510 10507 10504 10501 10499 10497 10494 10491 10489 10485 10482 10479 10475 10471 10468 10464 10461 10458 10454 10450 10447 10444 10440 10436 10432 10428 10424 10420 10415
10401 10403 10404 10407 10410 10415 10426 10436 10442 10447 10454 10457 10457 10457 10458 10460 10464 10469 10471 10472 10475 10479 10484 10488 10493 10496 10496 10496 10497 10498 10500 10503 10505 10506 10507 10510 10510 10511 10513 10514 10514 10515 10515 10515 10515 10514 10513 10513 10512 10510 10509 10507 10506 10504 10502 10500 10498 10496 10493 10490 10487 10485 10483 10480 10477 10475 10471 10467 10464 10460 10457 10454 10450 10447 10444 10440 10436 10433 10429 10425 10421 10417 10413 10409 10404 10400
10392 10394 10396 10400 10404 10410 10422 10431 10433 10435 10440 10443 10445 10446 10445 10445 10449 10454 10459 10462 10465 10468 10471 10474 10478 10481 10484 10486 10486 10486 10487 10489 10490 10491 10493 10495 10495 10497 10499 10500 10500 10502 10502 10502 10502 10501 10500 10499 10497 10496 10495 10493 10492 10491 10489 10486 10484 10482 10479 10477 10474 10472 10469 10467 10464 10460 10457 10453 10450 10446 10443 10440 10437 10433 10430 10426 10422 10417 10414 10410 10406 10402 10398 10393 10388 10384
10386 10387 10388 10393 10398 10404 10414 10420 10420 10422 10427 10432 10434 10434 10433 10433 10435 10438 10442 10447 10452 10457 10460 10462 10463 10465 10468 10470 10472 10474 10476 10476 10476 10477 10478 10479 10481 10482 10483 10485 10487 10488 10489 10489 10489 10488 10486 10485 10483 10482 10480 10479 10477 10476 10474 10472 10470 10468 10465 10463 10460 10458 10455 10452 10449 10445 10442 10439 10436 10433 10430 10426 10423 10419 10415 10411 10407 10403 10398 10395 10391 10386 10381 10377 10372 10368
10375 10377 10381 10385 10388 10394 10403 10409 10410 10411 10414 10417 10419 10420 10420 10421 10422 10424 10428 10432 10436 10442 10446 10449 10452 10454 10455 10456 10459 10461 10463 10463 10464 10463 10463 10464 10466 10467 10469 10472 10473 10473 10474 10474 10473 10472 10471 10470 10468 10467 10466 10464 10463 10461 10460 10458 10456 10453 10451 10448 10445 10443 10440 10437 10434 10431 10428 10425 10421 10418 10415 10412 10408 10404 10400 10396 10392 10387 10383 10379 10375 10370 10365 10360 10356 10352
10365 10369 10372 10372 10375 10383 10393 10396 10395 10394 10396 10400 10404 10406 10406 10408 10410 10412 10416 10419 10423 10427 10432 10435 10438 10440 10442 10443 10444 10445 10446 10448 10449 10450 10451 10451 10452 10453 10454 10456 10457 10457 10458 10457 10456 10455 10454 10453 10452 10452 10451 10450 10448 10447 10445 10443 10440 10438 10435 10433 10430 10428 10425 10422 10420 10416 10413 10410 10407 10404 10401 10397 10393 10389 10385 10381 10376 10372 10367 10363 10358 10353 10348 10344 10340 10336
10354 10358 10360 10360 10363 10372 10378 10379 10379 10381 10384 10387 10391 10393 10394 10397 10398 10400 10403 10407 10410 10414 10418 10420 10423 10425 10427 10428 10428 10429 10430 10431 10432 10434 10436 10436 10436 10438 10438 10438 10439 10440 10439 10439 10438 10436 10435 10435 10435 10435 10434 10433 10432 10431 10429 10426 10424 10422 10420 10418 10416 10413 10411 10408 10405 10401 10398 10395 10392 10389 10385 10381 10377 10372 10368 10364 10360 10355 10351 10346 10341 10337 10333 10329 10325 10321